This demonstration page uses our WeatherBlox Daily Observations layout. Learn more.

Left ArrowRight Arrow

Hourly Observations for October 13, 2015

Temp ( °F °C ) Dew Point ( °F °C ) Humidity (%) Winds ( mph kmh ) Pressure ( in mb ) Visibility ( mi km ) Precip ( " mm )
12:19 am 00:19 Partly Cloudy with Mist and Fog 63 17.2 61 16.1 93 93 WSW 5 7 29.62 1003 6 10 0.00 0.00
12:46 am 00:46 Mostly Cloudy with Mist and Fog 63 17.2 62 16.7 97 97 WSW 7 11 29.62 1003 6 10 0.00 0.00
12:53 am 00:53 Mostly Cloudy with Mist and Fog 63 17.2 61 16.1 93 93 SW 7 11 29.60 1003 6 10 0.00 0.00
1:06 am 01:06 Mostly Clear with Mist and Fog 62 16.7 61 16.1 96 96 SW 7 11 29.62 1003 6 10 0.00 0.00
1:53 am 01:53 Clear with Mist and Fog 61 16.1 60 15.6 97 97 WSW 6 9 29.61 1003 6 10 0.00 0.00
2:53 am 02:53 Clear 59 15 58 14.4 96 96 WSW 5 7 29.61 1003 7 11 0.00 0.00
3:53 am 03:53 Clear 58 14.4 56 13.3 93 93 WSW 3 6 29.60 1002 10 16 0.00 0.00
4:53 am 04:53 Clear 53 11.7 52 11.1 96 96 Calm 29.60 1002 9 14 0.00 0.00
5:53 am 05:53 Clear 51 10.6 50 10 96 96 Calm 29.61 1003 7 11 0.00 0.00
6:53 am 06:53 Clear 54 12.2 52 11.1 93 93 W 3 6 29.62 1003 10 16 0.00 0.00
7:53 am 07:53 Sunny 53 11.7 51 10.6 93 93 WSW 5 7 29.65 1004 10 16 0.00 0.00
8:53 am 08:53 Sunny 55 12.8 51 10.6 87 87 W 5 7 29.67 1005 10 16 0.00 0.00
9:53 am 09:53 Sunny 58 14.4 48 8.9 70 70 WNW 10 17 29.69 1005 10 16 0.00 0.00
10:53 am 10:53 Mostly Cloudy 58 14.4 45 7.2 62 62 WNW 15 24 29.71 1006 10 16 0.00 0.00
11:53 am 11:53 Mostly Cloudy 59 15 45 7.2 60 60 WNW 14 22 29.72 1007 10 16 0.00 0.00
12:53 pm 12:53 Partly Cloudy 61 16.1 44 6.7 54 54 W 12 19 29.73 1007 10 16 0.00 0.00
1:53 pm 13:53 Mostly Sunny 63 17.2 44 6.7 50 50 W 9 15 29.73 1007 10 16 0.00 0.00
2:53 pm 14:53 Partly Cloudy 65 18.3 44 6.7 47 47 VRB 7 11 29.73 1007 10 16 0.00 0.00
3:53 pm 15:53 Mostly Cloudy 64 17.8 44 6.7 48 48 W 10 17 29.74 1007 10 16 0.00 0.00
4:53 pm 16:53 Mostly Cloudy 64 17.8 45 7.2 50 50 WSW 9 15 29.77 1008 10 16 0.00 0.00
5:53 pm 17:53 Cloudy 62 16.7 45 7.2 54 54 WSW 8 13 29.78 1009 10 16 0.00 0.00
6:53 pm 18:53 Cloudy 61 16.1 46 7.8 58 58 WSW 7 11 29.80 1009 10 16 0.00 0.00
7:53 pm 19:53 Cloudy 59 15 47 8.3 64 64 SW 5 7 29.82 1010 10 16 0.00 0.00
8:53 pm 20:53 Cloudy 57 13.9 48 8.9 72 72 W 3 6 29.84 1010 10 16 0.00 0.00
9:53 pm 21:53 Mostly Clear 54 12.2 48 8.9 80 80 Calm 29.86 1011 10 16 0.00 0.00
10:53 pm 22:53 Clear 51 10.6 47 8.3 86 86 WNW 3 6 29.88 1012 10 16 0.00 0.00
11:53 pm 23:53 Clear 48 8.9 44 6.7 86 86 N 3 6 29.89 1012 10 16 0.00 0.00

Powered by AerisWeather